[ ตารางข้อมูล ] [ Min-Max ] [ วันนี้2 ] [ วันนี้4 ] [ เทียบ-A 3วัน ] [ เทียบ-B 4วัน ]   

วันนี้2   [ ◀ ช่วงเก่ากว่า ] [ ช่วงที่ 41 ] [ ช่วงใหม่กว่า ▶ ] [ ล่าสุด ]    [ 3 ชั่วโมง ] [ 6 ชั่วโมง ] [ 12 ชั่วโมง ] [ 24 ชั่วโมง ]   วันนี้2

อุณภูมิในตู้ Knockdown4529  ราย 6 ชั่วโมง  ที่วัดได้ ในช่วงวันเวลา 22/08/2026 (13:57) ถึง 22/08/2026 (19:57) 
ความชื้นในตู้ Knockdown4529  ราย 6 ชั่วโมง  ที่วัดได้ ในช่วงวันเวลา 22/08/2026 (13:57) ถึง 22/08/2026 (19:57) 
การใช้ไฟฟ้าในตู้ Knockdown4529  ราย 6 ชั่วโมง  ที่วัดได้ ในช่วงวันเวลา 22/08/2026 (13:57) ถึง 22/08/2026 (19:57) 

  DS18B20SHTC3PZEM-004TWiFi 
IDDate d/m/Y & Timedata1
สูง
data2
ต่ำ
data3
นอก
temp
pcb
hum
pcb
VoltAmpWattrssiTime
 15050  22/08/2026 19:54:41  33.2  33.4  31.4  34.1  66.2  227.6  0.04  4.6  -76  19:54 
 15049  22/08/2026 19:49:57  33.2  33.4  31.4  34.2  66.2  229.4  0.04  4.5  -78  19:49 
 15048  22/08/2026 19:45:14  33.2  33.4  31.4  34.1  66.1  227.5  0.04  4.5  -79  19:45 
 15047  22/08/2026 19:40:30  33.3  33.5  31.3  34.3  66.1  227.4  0.04  4.5  -81  19:40 
 15046  22/08/2026 19:35:47  33.4  33.5  31.4  34.3  65.9  226.7  0.04  4.5  -78  19:35 
 15045  22/08/2026 19:31:04  33.4  33.6  31.4  34.4  66.0  227.0  0.04  4.5  -78  19:31 
 15044  22/08/2026 19:26:20  33.4  33.6  31.5  34.6  65.7  226.2  0.04  4.5  -76  19:26 
 15043  22/08/2026 19:21:37  33.5  33.6  31.5  34.4  65.7  226.0  0.04  4.5  -78  19:21 
 15042  22/08/2026 19:16:54  33.5  33.6  31.7  34.6  65.7  228.5  0.04  4.5  -77  19:16 
 15041  22/08/2026 19:12:10  33.6  33.7  31.6  34.6  65.5  228.8  0.04  4.5  -80  19:12 
 15040  22/08/2026 19:07:26  33.7  33.7  31.7  34.7  65.4  224.4  0.04  4.5  -78  19:07 
 15039  22/08/2026 19:02:43  33.8  33.8  31.9  34.6  65.2  227.0  0.04  4.5  -79  19:02 
 15038  22/08/2026 18:58:00  33.8  33.8  31.9  34.6  65.2  226.7  0.04  4.5  -79  18:58 
 15037  22/08/2026 18:53:16  33.9  33.8  32.0  34.8  65.1  226.6  0.04  4.5  -78  18:53 
 15036  22/08/2026 18:48:33  33.9  33.8  32.2  34.8  65.0  227.2  0.04  4.5  -78  18:48 
 15035  22/08/2026 18:43:49  34.0  33.9  32.2  35.0  64.9  227.1  0.04  4.5  -79  18:43 
 15034  22/08/2026 18:39:05  34.1  33.9  32.3  34.9  64.5  227.6  0.04  4.6  -77  18:39 
 15033  22/08/2026 18:34:21  34.1  33.9  32.5  34.9  64.7  228.4  0.04  4.5  -76  18:34 
 15032  22/08/2026 18:29:38  34.2  34.0  32.5  35.1  64.6  228.7  0.04  4.5  -78  18:29 
 15031  22/08/2026 18:24:55  34.2  34.0  32.7  35.0  64.4  228.6  0.04  4.5  -77  18:24 
 15030  22/08/2026 18:20:12  34.3  34.1  32.7  35.3  64.3  228.4  0.04  4.5  -76  18:20 
 15029  22/08/2026 18:15:28  34.3  34.1  32.8  35.3  64.3  227.4  0.04  4.5  -78  18:15 
 15028  22/08/2026 18:10:44  34.4  34.1  33.0  35.4  64.2  228.9  0.04  4.5  -77  18:10 
 15027  22/08/2026 18:06:01  34.4  34.1  33.1  35.5  64.2  229.7  0.04  4.6  -77  18:06 

Data every 5 minute.


ใช้เวลาประมวลผล 0.04396 วินาที